This is the latest recevied weather packets stored in our database for station/object WB0OCV. If no packets are shown the sender has not sent any weather packets the latest 10 day(s).
| Time | Temp. | Humidity | Pressure | Rain* | Wind** | Luminosity | Snow |
|---|---|---|---|---|---|---|---|
| 1777780234 | 8.89° C | 99% | 1011.7 hPa | 3.05 mm | - | 0 W/m² | - |
| 1777779931 | 9.44° C | 99% | 1011.6 hPa | 3.05 mm | - | 0 W/m² | - |
| 1777779628 | 9.44° C | 99% | 1011.8 hPa | 3.05 mm | - | 0 W/m² | - |
| 1777779326 | 9.44° C | 99% | 1011.9 hPa | 1.78 mm | - | 0 W/m² | - |
| 1777779023 | 9.44° C | 99% | 1011.9 hPa | 1.78 mm | - | 0 W/m² | - |
| 1777778722 | 9.44° C | 99% | 1011.7 hPa | 3.05 mm | - | 0 W/m² | - |
| 1777778419 | 9.44° C | 99% | 1011.9 hPa | 3.05 mm | - | 0 W/m² | - |
| 1777778117 | 9.44° C | 99% | 1012 hPa | 3.05 mm | - | 0 W/m² | - |
| 1777777814 | 9.44° C | 99% | 1011.7 hPa | 1.27 mm | - | 0 W/m² | - |
| 1777777510 | 9.44° C | 99% | 1011.9 hPa | 1.78 mm | - | 0 W/m² | - |
| 1777777207 | 9.44° C | 99% | 1011.9 hPa | 1.27 mm | - | 0 W/m² | - |
| 1777776903 | 9.44° C | 99% | 1011.9 hPa | 3.05 mm | - | 0 W/m² | - |
| 1777776601 | 9.44° C | 99% | 1011.8 hPa | 3.05 mm | - | 0 W/m² | - |
| 1777776297 | 9.44° C | 99% | 1012.1 hPa | 1.27 mm | - | 0 W/m² | - |
| 1777775995 | 9.44° C | 99% | 1012.3 hPa | 0 mm | - | 0 W/m² | - |
| 1777775691 | 9.44° C | 99% | 1012.2 hPa | 0 mm | - | 0 W/m² | - |
| 1777775389 | 9.44° C | 99% | 1012.3 hPa | 1.78 mm | - | 0 W/m² | - |
| 1777775084 | 9.44° C | 99% | 1012.6 hPa | 1.78 mm | - | 0 W/m² | - |
| 1777774476 | 9.44° C | 99% | 1012.6 hPa | 1.27 mm | - | 0 W/m² | - |
| 1777774174 | 9.44° C | 99% | 1012.6 hPa | 1.78 mm | - | 0 W/m² | - |
| 1777773264 | 9.44° C | 99% | 1013 hPa | 4.32 mm | - | 0 W/m² | - |
| 1777772658 | 9.44° C | 99% | 1012.9 hPa | 4.83 mm | - | 0 W/m² | - |
| 1777769931 | 9.44° C | 98% | 1012.7 hPa | 1.78 mm | - | 0 W/m² | - |
| 1777769629 | 9.44° C | 98% | 1013 hPa | 1.27 mm | - | 0 W/m² | - |
| 1777767810 | 9.44° C | 98% | 1013 hPa | 0 mm | - | 0 W/m² | - |
* Rain latest hour (hover to see other rain measurements)
** Current wind speed in m/s (hover to see current wind gust speed)